Weather History for Cross City, FL

Change the Weather History Date:

Wednesday, October 30, 2013

  Actual Average Record
Temperature  
Mean Temperature 71 °F 66 °F  
Max Temperature 86 °F 80 °F 86 °F (2004)
Min Temperature 55 °F 53 °F 34 °F (2008)
Degree Days  
Heating Degree Days 0 2  
Month to date heating degree days 18 29  
Since 1 July heating degree days 18 29  
Cooling Degree Days 6 4  
Month to date cooling degree days 245 197  
Year to date cooling degree days 2744 2539  
Growing Degree Days 20 (Base 50)    
Moisture  
Dew Point 60 °F    
Average Humidity 73    
Maximum Humidity 100    
Minimum Humidity 44    
Precipitation  
Precipitation 0.00 in 0.09 in 0.11 in (2002)
Month to date precipitation 1.23 3.32  
Year to date precipitation 59.17 43.15  
Sea Level Pressure  
Sea Level Pressure 30.20 in    
Wind  
Wind Speed 2 mph (ENE)    
Max Wind Speed 10 mph    
Max Gust Speed 15 mph    
T = Trace of Precipitation, MM = Missing Value Source: NWS Daily Summary

Daily Weather History Graph

Daily Weather History Graph

Search for Another Location

Airport:

Trip Planner

Search our weather history database for the weather conditions in past years. The results will help you decide how hot, cold, wet, or windy it might be!

Date:

Astronomy

Oct. 30, 2013 Rise Set
Actual Time 7:44 AM EDT 6:47 PM EDT
Civil Twilight 7:19 AM EDT 7:11 PM EDT
Nautical Twilight 6:51 AM EDT 7:39 PM EDT
Astronomical Twilight 6:23 AM EDT 8:07 PM EDT
Moon 3:49 AM EDT (10/30) 4:16 PM EDT (10/30)
Length of Visible Light 11h 51m
Length of Day
11h 02m
Waning Crescent, 17% of the Moon is Illuminated
Oct 30
Waning Crescent
Nov 3
New
Nov 10
First Quarter
Nov 17
Full
Nov 25
Last Quarter

Hourly Weather History & Observations

Time (EDT) Temp. Heat Index Dew Point Humidity Pressure Visibility Wind Dir Wind Speed Gust Speed Precip Events Conditions
12:53 AM 59.0 °F - 55.9 °F 90% 30.25 in - Calm Calm - N/A   Unknown
1:53 AM 57.0 °F - 55.0 °F 93% 30.24 in - Calm Calm - N/A   Unknown
2:53 AM 57.0 °F - 55.0 °F 93% 30.22 in - Calm Calm - N/A   Unknown
3:53 AM 55.9 °F - 54.0 °F 93% 30.21 in - Calm Calm - N/A   Unknown
4:53 AM 55.9 °F - 54.0 °F 93% 30.21 in - Calm Calm - N/A   Unknown
5:53 AM 55.9 °F - 55.0 °F 97% 30.23 in - Calm Calm - N/A   Unknown
6:53 AM 57.0 °F - 55.0 °F 93% 30.23 in - Calm Calm - N/A   Unknown
7:53 AM 55.9 °F - 55.0 °F 97% 30.25 in - Calm Calm - 0.01 in   Unknown
8:53 AM 64.0 °F - 60.1 °F 87% 30.26 in - NNE 3.5 mph - N/A   Unknown
9:53 AM 72.0 °F - 62.1 °F 71% 30.27 in - Calm Calm - N/A   Unknown
10:53 AM 77.0 °F - 64.0 °F 64% 30.26 in - Variable 4.6 mph - N/A   Unknown
11:53 AM 81.0 °F 82.5 °F 64.0 °F 56% 30.26 in - Variable 4.6 mph - N/A   Unknown
12:53 PM 82.0 °F 83.4 °F 64.0 °F 54% 30.24 in - NE 3.5 mph - N/A   Unknown
1:53 PM 84.9 °F 85.4 °F 62.1 °F 46% 30.19 in - NNE 6.9 mph - N/A   Unknown
2:53 PM 82.9 °F 83.2 °F 60.1 °F 46% 30.16 in - East 5.8 mph - N/A   Unknown
3:53 PM 84.0 °F 84.0 °F 60.1 °F 44% 30.14 in - NE 3.5 mph - N/A   Unknown
4:53 PM 84.0 °F 84.4 °F 61.0 °F 46% 30.15 in - East 3.5 mph - N/A   Unknown
5:53 PM 81.0 °F 81.7 °F 61.0 °F 50% 30.14 in - ENE 3.5 mph - N/A   Unknown
6:53 PM 77.0 °F - 62.1 °F 60% 30.15 in - ENE 4.6 mph - N/A   Unknown
7:53 PM 73.9 °F - 64.0 °F 71% 30.16 in - East 3.5 mph - N/A   Unknown
8:53 PM 72.0 °F - 64.0 °F 76% 30.16 in - East 4.6 mph - N/A   Unknown
9:53 PM 70.0 °F - 64.0 °F 81% 30.17 in - Calm Calm - N/A   Unknown
10:53 PM 69.1 °F - 64.0 °F 84% 30.17 in - Calm Calm - N/A   Unknown
11:53 PM 68.0 °F - 64.0 °F 87% 30.17 in - Calm Calm - N/A   Unknown